Weather in Rzhevskoye

Russia / Kaliningrad Oblast     55°04′56″N   21°44′53″E
temp.,
°C
wind,
m/s
gust,
m/s
humid.,
%
clouds,
%
prec.,
mm/h
press.,
hPa
HPBL,
m
17 may, tue
tue1723:00+3nnw38710 0.0 1021129
02:00+1nnw34870 0.0 102268
05:00+1nnw36850 0.0 1022107
08:00+9nnw59575 0.0 1022709
11:00+12nnw7114587 0.0 10222408
14:00+12nw9104430 0.0 10222089
17:00+11nw811542 0.0 10221219
20:00+8nnw611620 0.0 1023579
18 may, wed
wed1823:00+3nnw49810 0.0 1025226
02:000n36940 0.0 1027105
05:000nnw23940 0.0 102854
08:00+7nw34665 0.0 1029459
11:00+11nw34535 0.0 1029969
14:00+13wnw55523 0.0 10291006
17:00+12nw56540 0.0 1028743
20:00+7wnw337854 0.0 102840
19 may, thu
thu1923:00+4sw22825 0.0 102716
02:00+3sw348179 0.0 102752
05:00+4ssw36778 0.0 1026107
08:00+12wsw4763100 0.0 1026282
11:00+17wsw454583 0.0 1025856
14:00+19wsw4543100 0.0 10241129
17:00+19sw3556100 0.0 1022985
20:00+15ssw3372100 0.0 102135
20 may, fri
fri2023:00+12s4974100 0.0 1019153
02:00+12ssw41067100 0.0 1017188
05:00+12ssw41069100 0.0 1015204
08:00+17wsw51170100 0.0 1014566
11:00+16wnw688477 0.0 1015513
14:00+18wnw69695 0.0 1015789
17:00+16wnw6873100 0.0 1015679
20:00+12wnw2492100 0.0 101492
21 may, sat
sat2123:00+9wnw2296100 0.0 101224
02:00+9nnw1196100 0.0 101010
05:00+9w1195100 0.0 100912
08:00+11wsw3593100 0.4 1009270
11:00+12w4687100 0.8 1008396
14:00+12w71281100 0.8 1009895
17:00+13wnw8117556 0.1 10091070
20:00+10wnw49886 0.1 1008462